Starlink 4015

operational
NORAD ID: 52616 Int'l Des: 2022-052 Owner: SPXS Country: US Constellation: starlink
LEOCIRCULAR

Über Starlink 4015

Beschreibung wird geladen...

Live-Position

3D-Globus wird geladen...

Nächste Überflüge

Höhenverlauf

Altitude vs Time

uPlot chart will show altitude changes over time

Zweizeiliger Elementsatz

1 52616U 22052U 25354.58336806 .02166261 00000-0 64453-1 0 9996
2 52616 53.2202 263.0371 0001199 108.0991 89.5569 15.30714065 5803
Epoch: 20. Dez. 2025 • Age: 8 hours

Aktueller Status

Höhe 487.4 km
Geschwindigkeit 7.62 km/s
Subsatellitenpunkt -49.44°S, 81.07°E
Startdatum 14. Mai 2022
Alter 3.6 years
Typ internet

Technische Details

Klassifizierung Payload
Masse 297.00 kg
Trockenmasse 275.00 kg
Gesamtmasse 297.00 kg
Länge 0.20 m
Durchmesser 2.80 m
Spannweite 9.00 m
Form Box + pan
Hersteller SPXS
Bus-Typ Starlink
Phasenstatus In Orbit
Besitzer/Staat SPXS/US

Große Konstellationen

Loading constellations...